Wind_Speed
38 36 37 36 35 36 38 38 36 36 35 35 34 33 33 32 32 31 31 30 29 23
38 37 39 39 37 36 35 36 35 35 36 35 35 33 33 33 33 30 27 24 25 22
39 38 36 36 37 38 36 35 35 34 35 35 34 34 32 32 30 28 26 24 22 20
31 33 32 33 32 35 38 38 37 36 36 36 32 30 28 26 25 24 22 21 21 19
22 25 27 31 34 34 37 38 37 35 29 23 23 19 17 18 20 22 22 20 19 18
23 26 29 32 33 34 34 34 31 31 32 28 27 24 20 19 20 19 21 19 18 16
21 26 28 30 29 32 33 32 32 32 32 33 32 31 28 22 17 20 19 16 16 17
17 19 23 24 27 28 29 30 31 33 36 38 41 44 40 37 34 26 21 19 16 15
15 16 18 21 23 24 26 29 32 36 38 38 41 43 41 42 42 33 26 26 26 24
12 14 16 20 23 24 28 31 35 38 40 39 39 45 43 37 38 38 35 33 27 22
12 15 18 21 24 26 30 33 35 35 36 38 39 41 41 45 40 37 33 29 25 22
13 16 18 21 24 26 27 26 27 31 35 36 37 43 43 41 36 34 30 25 19 16
13 16 18 20 23 24 24 25 28 28 31 36 37 39 37 36 36 32 28 22 22 20
9 12 16 19 21 24 25 25 25 28 28 33 39 32 33 36 34 33 29 26 24 20
Wind_Direction
212 212 215 215 215 220 220 220 220 218 220 221 221 217 212 211 212 213 214 217 220 221
214 215 217 223 224 225 225 224 223 222 222 223 224 220 219 217 212 212 213 213 215 214
219 220 220 221 222 226 228 227 226 224 224 224 223 221 217 217 216 211 205 197 197 189
221 224 222 224 224 227 230 227 225 226 223 221 219 219 213 211 209 203 193 185 184 177
230 228 227 228 232 231 230 230 226 219 212 197 193 202 208 209 205 196 184 179 177 167
225 229 232 235 235 231 226 224 210 201 196 194 194 195 188 204 192 194 184 175 172 159
233 228 225 229 225 226 221 211 204 199 195 190 188 187 185 186 196 196 182 173 170 156
251 239 232 231 229 226 215 209 203 187 185 191 193 189 184 181 185 175 169 161 157 150
249 242 230 230 230 220 205 193 187 182 185 180 181 188 185 181 176 176 184 171 169 161
252 233 239 236 224 205 194 190 183 181 181 178 182 183 177 182 183 179 174 174 170 172
257 241 226 216 208 200 195 190 184 180 179 180 180 184 181 181 174 172 171 176 179 185
253 233 219 209 201 198 188 180 178 176 175 170 160 170 173 172 167 165 171 173 174 181
260 231 211 202 192 186 182 174 174 168 167 163 152 161 174 170 168 165 164 166 172 177
257 223 204 189 185 179 169 159 154 150 151 151 157 156 167 175 172 166 159 161 164 154
Height
765 768 772 777 781 786 789 793 798 803 806 811 816 819 820 823 827 830 831 834 839 842
760 764 766 769 775 780 784 789 794 799 803 808 813 816 819 821 822 826 829 831 837 838
753 757 761 765 767 772 779 784 788 794 799 804 809 814 816 820 824 825 827 827 834 836
748 752 758 761 765 769 773 777 782 786 793 799 805 812 816 819 825 828 830 829 833 836
749 752 755 757 761 765 770 772 777 782 788 794 801 811 819 822 828 828 829 833 835 836
746 748 750 753 756 760 764 767 772 776 781 787 794 800 806 821 822 832 832 831 836 840
742 743 747 750 754 756 758 762 767 771 775 781 786 796 805 814 820 829 832 833 838 838
740 741 744 747 749 753 754 757 761 767 769 774 780 785 784 798 815 821 828 832 838 838
739 740 742 744 747 750 752 754 758 762 766 772 776 777 787 795 801 815 823 823 833 834
738 739 740 742 745 747 749 752 756 759 763 769 771 781 787 795 802 805 814 825 832 834
739 738 739 740 742 744 747 750 753 757 761 766 771 779 784 791 798 807 814 824 832 837
738 737 738 739 740 743 746 749 753 756 760 764 771 775 783 791 798 806 816 824 829 837
738 737 737 738 739 743 746 749 752 756 761 763 770 776 783 790 797 807 814 823 830 835
738 738 737 738 740 742 746 750 755 758 763 766 770 777 784 790 797 805 815 823 830 833